FlightSource - Aviation Photo Database

World Wide Airport Lookup


Search by ICAO
Or
Search by City

FlightSource.ca - Aviation Photo Database - Ulyanovsk East Airport Information
Airport Identification
Name: Ulyanovsk East Airport
ICAO: UWLW
IATA: ULY
Airport Location
City: Ulyanovsk
Region: ULY
Country: Russia
Continent: Europe
Latitude: 54.401
Longitude: 48.8027
Airport Information
Type: Medium Airport
Elevation: 252 Feet ASL
Flight Status: UWLW
More Info: UWLW
Airport Weather    
Metar: UWLW 260100Z 36004MPS 8000 NSC M23/M25 Q1021 R02/820555 NOSIG RMK QFE759
TAF:


Advertisement